Location: Springfield
(37.2150°N, 93.2980°W)
Time: 01:25:44
(UTC-05:00)

ATLAS 3B CENTAUR R/B - Pass Details

Date: 19 April 2018
Orbit: 223 x 5460 km, 28.1° (Epoch: 25 May)

Event Time Altitude Azimuth Distance (km) Brightness Sun altitude
Rises 20:25:49 0° 277° (W) 8,237 9.2 -7.3°
Reaches altitude 10° 20:33:33 10° 270° (W) 6,221 7.9 -8.7°
Maximum altitude 20:47:18 32° 217° (SW) 2,618 4.8 -11.2°
Drops below altitude 10° 20:53:35 10° 155° (SSE) 2,782 4.4 -12.4°
Enters shadow 20:53:59 - 153° (SSE) 2,869 4.5 -12.4°
